Flag for Germany Weather past 2 weeks in Münster, North Rhine-Westphalia, Germany

Now
45 °F

Fog.


Feels Like: 43 °F
Forecast: 51 / 66 °F
Wind: 3 mph from Southeast

Location: Muenster / Osnabrueck

Current Time: Aug 21, 2014 at 6:56:13 AM

Latest Report: Aug 21, 2014 at 6:20 AM


Visibility: 0 mi

Pressure: 30.01 "Hg

Humidity: 100%

Dew point: 45 °F

Location of MünsterLocation

Historic Weather in Münster — Graph

°F

Münster temperature yesterday

Maximum temperature yesterday: 63 °F (at 12:20 PM)
Minimum temperature yesterday: 48 °F (at 6:50 AM)
Average temperature yesterday: 54 °F

Past Weeks' High & Low Weather Summary

 TemperatureHumidityPressure
High79 °F (Aug 6, 3:20 PM)100% (Aug 7, 1:20 AM)30.07 "Hg (Aug 7, 1:20 AM)
Low45 °F (Aug 21, 4:50 AM)39% (Aug 6, 3:20 PM)29.53 "Hg (Aug 10, 8:20 PM)
Average61 °F78%29.84 "Hg
* Reported Aug 6 5:20 AM — Aug 21 5:20 AM, Münster, Weather by CustomWeather, © 2014

Note: Actual official high and low records may vary slightly from our data, if they occured in-between our weather recording intervals... More about our weather records

Advertising

Münster weather history for previous 24 hours

 ConditionsComfort  
Time TempWeatherWind HumidityBarometerVisibility
5:20 AM
Aug 21
45 °FFog.1 mph100%30.01 "Hg1 mi
4:50 AM45 °FFog.1 mph100%30.01 "HgN/A
4:20 AM46 °FCool.3 mph100%30.01 "Hg2 mi
3:50 AM48 °FCool.3 mph100%30.01 "Hg3 mi
3:20 AM48 °FCool.2 mph100%30.01 "Hg4 mi
2:50 AM48 °FCool.3 mph100%30.01 "Hg4 mi
2:20 AM48 °FCool.2 mph100%30.01 "Hg5 mi
1:50 AM50 °FCool.2 mph94%30.01 "HgN/A
1:20 AM50 °FPassing clouds.2 mph94%30.01 "HgN/A
12:50 AM52 °FPassing clouds.3 mph94%30.01 "HgN/A
12:20 AM52 °FPartly cloudy.3 mph94%30.01 "HgN/A
11:50 PM
Aug 20
52 °FPartly cloudy.3 mph88%30.01 "HgN/A
11:20 PM54 °FClear.3 mph88%30.01 "Hg10 mi
10:50 PM54 °FClear.5 mph88%30.01 "Hg10 mi
10:20 PM54 °FClear.6 mph88%30.01 "Hg10 mi
9:50 PM54 °FClear.6 mph88%30.01 "Hg10 mi
9:20 PM54 °FPartly sunny.5 mph94%30.01 "HgN/A
8:50 PM55 °FPartly sunny.2 mph82%29.98 "HgN/A
8:20 PM54 °FSprinkles. Broken clouds.2 mph88%29.98 "HgN/A
7:50 PM55 °FSprinkles. Broken clouds.3 mph82%29.98 "HgN/A
7:20 PM55 °FBroken clouds.3 mph82%29.98 "HgN/A
6:50 PM54 °FPartly sunny.3 mph82%29.98 "HgN/A
6:20 PM54 °FSprinkles. Partly sunny.6 mph82%29.98 "HgN/A
5:50 PM57 °FThundershowers. Scattered clouds.9 mph82%30.01 "HgN/A
5:20 PM61 °FScattered showers. Scattered clouds.2 mph68%29.98 "HgN/A
4:50 PM59 °FScattered showers. Partly sunny.3 mph77%29.98 "HgN/A
4:20 PM55 °FSprinkles. Partly sunny.5 mph82%29.98 "Hg6 mi
3:50 PM59 °FScattered showers. Partly sunny.3 mph68%29.98 "HgN/A
3:20 PM57 °FSprinkles. Broken clouds.7 mph72%30.01 "HgN/A
2:50 PM61 °FScattered showers. Broken clouds.10 mph55%29.98 "HgN/A
2:20 PM57 °FScattered showers. Broken clouds.6 mph72%29.98 "HgN/A
1:50 PM54 °FSprinkles. Partly sunny.8 mph77%29.98 "Hg6 mi
1:20 PM63 °FScattered showers. Partly sunny.14 mph52%29.98 "HgN/A
12:50 PM63 °FScattered clouds.14 mph52%29.98 "HgN/A
12:20 PM63 °FScattered clouds.14 mph56%29.98 "HgN/A
11:50 AM61 °FScattered clouds.14 mph55%29.98 "HgN/A
11:20 AM61 °FScattered clouds.12 mph59%29.98 "HgN/A
10:50 AM59 °FPassing clouds.13 mph63%29.98 "HgN/A
10:20 AM59 °FPassing clouds.13 mph68%29.98 "HgN/A
9:50 AM57 °FPassing clouds.10 mph72%29.98 "HgN/A
9:20 AM55 °FScattered clouds.10 mph77%29.98 "HgN/A
8:50 AM54 °FPassing clouds.8 mph82%29.98 "HgN/A
8:20 AM52 °FPassing clouds.8 mph82%29.95 "HgN/A
7:50 AM50 °FPassing clouds.8 mph88%29.95 "HgN/A
7:20 AM50 °FPassing clouds.7 mph82%29.95 "HgN/A
6:50 AM48 °FClear.6 mph87%29.95 "Hg10 mi
6:20 AM50 °FClear.7 mph82%29.95 "Hg10 mi
Weather by CustomWeather, © 2014

See weather overviewHow to use our weather pages